| time (UTC) | temp F | wind direction | speed MPH | gust MPH | rain 1hr in | rain 24hr in | rain mn in | humidity % | barometer mb |
| 20260510111512 | 44 | 294 | 3.0 | 5.0 | 0.00 | 0.20 | 0.01 | 93 | 1012.2 |
| 20260510110018 | 44 | 355 | 1.0 | 3.0 | 0.00 | 0.20 | 0.01 | 93 | 1011.5 |
| 20260510104524 | 44 | 284 | 1.0 | 5.0 | 0.00 | 0.20 | 0.01 | 94 | 1011.3 |
| 20260510103027 | 44 | 13 | 1.0 | 6.0 | 0.00 | 0.20 | 0.01 | 95 | 1010.9 |
| 20260510101512 | 45 | 320 | 1.0 | 5.0 | 0.00 | 0.20 | 0.01 | 96 | 1010.9 |
| 20260510100015 | 45 | 5 | 2.0 | 6.0 | 0.00 | 0.20 | 0.01 | 97 | 1010.4 |
| 20260510094521 | 46 | 360 | 3.0 | 5.0 | 0.00 | 0.20 | 0.01 | 97 | 1009.8 |
| 20260510093028 | 46 | 338 | 2.0 | 3.0 | 0.00 | 0.20 | 0.01 | 97 | 1009.7 |
| 20260510091530 | 46 | 289 | 1.0 | 3.0 | 0.00 | 0.20 | 0.01 | 97 | 1009.6 |
| 20260510090012 | 46 | 294 | 0.0 | 3.0 | 0.00 | 0.20 | 0.01 | 97 | 1009.3 |
| 20260510084517 | 46 | 315 | 1.0 | 4.0 | 0.00 | 0.20 | 0.01 | 97 | 1009.3 |
| 20260510083022 | 46 | 247 | 1.0 | 3.0 | 0.00 | 0.20 | 0.01 | 97 | 1009.4 |
| 20260510081530 | 45 | 276 | 0.0 | 2.0 | 0.00 | 0.20 | 0.01 | 97 | 1009.1 |
| 20260510080031 | 45 | 276 | 0.0 | 1.0 | 0.00 | 0.20 | 0.01 | 97 | 1008.6 |
| 20260510074514 | 44 | 276 | 0.0 | 2.0 | 0.00 | 0.20 | 0.01 | 97 | 1008.7 |
| 20260510073027 | 44 | 276 | 0.0 | 2.0 | 0.00 | 0.20 | 0.01 | 96 | 1008.7 |
| 20260510071523 | 44 | 186 | 0.0 | 1.0 | 0.00 | 0.20 | 0.01 | 97 | 1008.6 |
| 20260510070026 | 45 | 186 | 0.0 | 2.0 | 0.01 | 0.20 | 0.01 | 96 | 1008.3 |
| 20260510064535 | 45 | 186 | 0.0 | 1.0 | 0.01 | 0.20 | 0.01 | 96 | 1008.0 |
| 20260510063020 | 45 | 186 | 0.0 | 1.0 | 0.01 | 0.20 | 0.01 | 96 | 1008.1 |
| 20260510061504 | 45 | 186 | 0.0 | 3.0 | 0.01 | 0.20 | 0.01 | 96 | 1008.2 |
| 20260510060009 | 46 | 204 | 0.0 | 2.0 | 0.00 | 0.19 | 0.00 | 96 | 1008.4 |
| 20260510054514 | 45 | 192 | 1.0 | 3.0 | 0.00 | 0.19 | 0.00 | 96 | 1008.3 |
| 20260510053035 | 46 | 180 | 0.0 | 2.0 | 0.00 | 0.19 | 0.00 | 96 | 1008.5 |
| 20260510051504 | 46 | 306 | 0.0 | 3.0 | 0.00 | 0.19 | 0.00 | 96 | 1008.6 |
| 20260510050005 | 47 | 178 | 0.0 | 2.0 | 0.00 | 0.19 | 0.00 | 95 | 1008.4 |
| 20260510044510 | 48 | 175 | 1.0 | 5.0 | 0.00 | 0.19 | 0.00 | 96 | 1008.1 |
| 20260510043012 | 48 | 196 | 1.0 | 3.0 | 0.00 | 0.19 | 0.00 | 95 | 1008.0 |
| 20260510041527 | 48 | 165 | 1.0 | 4.0 | 0.01 | 0.19 | 0.00 | 95 | 1008.0 |
| 20260510040004 | 49 | 206 | 1.0 | 5.0 | 0.02 | 0.19 | 0.00 | 95 | 1007.6 |
| 20260510034506 | 49 | 194 | 2.0 | 7.0 | 0.03 | 0.19 | 0.19 | 95 | 1007.5 |
| 20260510033011 | 49 | 163 | 4.0 | 8.0 | 0.08 | 0.19 | 0.19 | 95 | 1007.5 |
| 20260510031523 | 49 | 165 | 2.0 | 7.0 | 0.18 | 0.18 | 0.18 | 94 | 1007.6 |
| 20260510030020 | 49 | 163 | 4.0 | 8.0 | 0.17 | 0.17 | 0.17 | 93 | 1007.0 |
| 20260510024504 | 49 | 204 | 5.0 | 12.0 | 0.16 | 0.16 | 0.16 | 92 | 1008.1 |
| 20260510023005 | 50 | 249 | 4.0 | 9.0 | 0.11 | 0.11 | 0.11 | 89 | 1008.3 |
| 20260510021514 | 53 | 308 | 4.0 | 14.0 | 0.00 | 0.00 | 0.00 | 83 | 1007.7 |
| 20260510020024 | 53 | 181 | 3.0 | 11.0 | 0.00 | 0.00 | 0.00 | 82 | 1006.5 |
| 20260510014523 | 53 | 155 | 3.0 | 11.0 | 0.00 | 0.00 | 0.00 | 81 | 1006.2 |
| 20260510013004 | 54 | 174 | 5.0 | 12.0 | 0.00 | 0.00 | 0.00 | 81 | 1006.1 |
| 20260510011509 | 54 | 155 | 4.0 | 10.0 | 0.00 | 0.00 | 0.00 | 80 | 1005.7 |
| 20260510010017 | 54 | 184 | 4.0 | 8.0 | 0.00 | 0.00 | 0.00 | 80 | 1006.0 |
| 20260510004519 | 54 | 163 | 4.0 | 10.0 | 0.00 | 0.00 | 0.00 | 79 | 1005.7 |
| 20260510003022 | 54 | 141 | 4.0 | 8.0 | 0.00 | 0.00 | 0.00 | 78 | 1005.5 |
| 20260510001507 | 55 | 174 | 4.0 | 9.0 | 0.00 | 0.00 | 0.00 | 77 | 1005.5 |
| 20260510000012 | 56 | 157 | 3.0 | 9.0 | 0.00 | 0.00 | 0.00 | 76 | 1005.5 |
| 20260509234519 | 56 | 167 | 4.0 | 8.0 | 0.00 | 0.00 | 0.00 | 75 | 1005.5 |
| 20260509233023 | 57 | 175 | 3.0 | 9.0 | 0.00 | 0.00 | 0.00 | 73 | 1005.6 |
| 20260509231523 | 58 | 192 | 2.0 | 9.0 | 0.00 | 0.00 | 0.00 | 71 | 1005.7 |
| 20260509230010 | 58 | 184 | 3.0 | 10.0 | 0.00 | 0.00 | 0.00 | 70 | 1005.4 |
| 20260509224515 | 59 | 209 | 4.0 | 8.0 | 0.00 | 0.00 | 0.00 | 69 | 1005.4 |
| 20260509223022 | 58 | 244 | 3.0 | 11.0 | 0.00 | 0.00 | 0.00 | 69 | 1005.7 |
| 20260509221525 | 59 | 201 | 7.0 | 16.0 | 0.00 | 0.00 | 0.00 | 69 | 1005.6 |
| 20260509220037 | 59 | 140 | 3.0 | 12.0 | 0.00 | 0.00 | 0.00 | 69 | 1005.6 |
| 20260509214512 | 60 | 199 | 6.0 | 13.0 | 0.00 | 0.00 | 0.00 | 67 | 1005.6 |
| 20260509213012 | 60 | 178 | 4.0 | 16.0 | 0.00 | 0.00 | 0.00 | 68 | 1005.6 |
| 20260509211507 | 59 | 147 | 7.0 | 14.0 | 0.00 | 0.00 | 0.00 | 69 | 1005.6 |
| 20260509210008 | 60 | 201 | 8.0 | 17.0 | 0.00 | 0.00 | 0.00 | 67 | 1005.7 |
| 20260509204512 | 59 | 167 | 6.0 | 17.0 | 0.00 | 0.00 | 0.00 | 67 | 1005.7 |
| 20260509203022 | 59 | 203 | 7.0 | 18.0 | 0.00 | 0.00 | 0.00 | 68 | 1006.0 |
| 20260509201506 | 60 | 238 | 6.0 | 14.0 | 0.00 | 0.00 | 0.00 | 68 | 1006.0 |
| 20260509200009 | 59 | 177 | 6.0 | 16.0 | 0.00 | 0.00 | 0.00 | 68 | 1006.2 |
| 20260509194512 | 59 | 184 | 5.0 | 20.0 | 0.00 | 0.00 | 0.00 | 69 | 1006.4 |
| 20260509193008 | 58 | 185 | 6.0 | 16.0 | 0.00 | 0.00 | 0.00 | 70 | 1006.7 |
| 20260509191510 | 59 | 282 | 7.0 | 12.0 | 0.00 | 0.00 | 0.00 | 69 | 1007.0 |
| 20260509190010 | 58 | 223 | 6.0 | 14.0 | 0.00 | 0.00 | 0.00 | 71 | 1007.2 |
| 20260509184507 | 57 | 138 | 9.0 | 16.0 | 0.00 | 0.00 | 0.00 | 72 | 1007.2 |
| 20260509183014 | 57 | 150 | 8.0 | 16.0 | 0.00 | 0.00 | 0.00 | 73 | 1007.4 |
| 20260509181511 | 57 | 202 | 6.0 | 14.0 | 0.00 | 0.00 | 0.00 | 72 | 1007.4 |
| 20260509180013 | 56 | 163 | 7.0 | 16.0 | 0.00 | 0.00 | 0.00 | 74 | 1007.6 |
| 20260509174536 | 55 | 178 | 3.0 | 13.0 | 0.00 | 0.00 | 0.00 | 77 | 1007.6 |
| 20260509173007 | 54 | 166 | 7.0 | 13.0 | 0.00 | 0.00 | 0.00 | 76 | 1007.6 |
| 20260509171510 | 53 | 128 | 6.0 | 11.0 | 0.00 | 0.00 | 0.00 | 77 | 1007.9 |
| 20260509170012 | 53 | 135 | 4.0 | 17.0 | 0.00 | 0.00 | 0.00 | 77 | 1008.1 |
| 20260509164517 | 52 | 143 | 7.0 | 15.0 | 0.00 | 0.00 | 0.00 | 77 | 1008.2 |
| 20260509163014 | 52 | 157 | 6.0 | 12.0 | 0.00 | 0.00 | 0.00 | 78 | 1008.3 |
| 20260509161521 | 53 | 155 | 7.0 | 14.0 | 0.00 | 0.00 | 0.00 | 76 | 1008.6 |
| 20260509160016 | 54 | 165 | 5.0 | 11.0 | 0.00 | 0.00 | 0.00 | 75 | 1008.7 |
| 20260509154516 | 53 | 135 | 8.0 | 13.0 | 0.00 | 0.00 | 0.00 | 76 | 1008.9 |
| 20260509153027 | 52 | 135 | 2.0 | 9.0 | 0.00 | 0.00 | 0.00 | 76 | 1009.1 |
| 20260509151518 | 52 | 161 | 4.0 | 12.0 | 0.00 | 0.00 | 0.00 | 75 | 1009.3 |
| 20260509150022 | 52 | 161 | 4.0 | 12.0 | 0.00 | 0.00 | 0.00 | 74 | 1009.2 |
| 20260509144520 | 51 | 126 | 5.0 | 13.0 | 0.00 | 0.00 | 0.00 | 75 | 1009.3 |
| 20260509143018 | 50 | 176 | 4.0 | 10.0 | 0.00 | 0.00 | 0.00 | 73 | 1009.4 |
| 20260509141517 | 49 | 160 | 5.0 | 12.0 | 0.00 | 0.00 | 0.00 | 74 | 1009.6 |
| 20260509140018 | 49 | 136 | 6.0 | 12.0 | 0.00 | 0.00 | 0.00 | 74 | 1009.7 |
| 20260509134519 | 48 | 128 | 5.0 | 12.0 | 0.00 | 0.00 | 0.00 | 73 | 1009.6 |
| 20260509133018 | 47 | 142 | 6.0 | 13.0 | 0.00 | 0.00 | 0.00 | 73 | 1009.8 |
| 20260509131523 | 47 | 217 | 4.0 | 10.0 | 0.00 | 0.00 | 0.00 | 73 | 1010.0 |
| 20260509130020 | 46 | 197 | 3.0 | 10.0 | 0.00 | 0.00 | 0.00 | 73 | 1010.0 |
| 20260509124522 | 45 | 180 | 3.0 | 11.0 | 0.00 | 0.00 | 0.00 | 72 | 1010.0 |
| 20260509123017 | 44 | 162 | 4.0 | 10.0 | 0.00 | 0.00 | 0.00 | 73 | 1010.0 |
| 20260509121504 | 43 | 171 | 3.0 | 10.0 | 0.00 | 0.00 | 0.00 | 74 | 1010.0 |
| 20260509120005 | 42 | 136 | 4.0 | 8.0 | 0.00 | 0.00 | 0.00 | 72 | 1010.2 |
| 20260509114524 | 42 | 190 | 4.0 | 11.0 | 0.00 | 0.00 | 0.00 | 72 | 1010.2 |
| 20260509113017 | 41 | 148 | 4.0 | 9.0 | 0.00 | 0.00 | 0.00 | 72 | 1010.0 |